Weather Roundup
Issued by NWS

Home | Current Version | Previous Version | Text Only | Print | Product List | Glossary On
Versions: 1 2 3 4 5 6 7 8 9 10 11 12 13 14 15 16 17 18 19 20 21 22 23 24 25 26 27 28 29 30 31 32 33 34 35 36 37 38 39 40 41 42 43 44 45 46 47 48 49 50
000
NZUS93 KARX 180359
HRRWXR

CURRENT HOURLY OBSERVATIONS ACROSS
MUCH OF THE UPPER MISSISSIPPI VALLEY
NATIONAL WEATHER SERVICE LA CROSSE WI
1100 PM CDT THU APR 17 2014


...SOUTHEAST MINNESOTA...


CITY           SKY/WX    TMP DP  RH WIND       PRES   REMARKS
ROCHESTER      CLEAR     32  26  78 CALM      30.30S
ROCHESTER/MAYO FAIR      33  26  75 CALM      30.30F
WINONA         CLEAR     36  30  80 CALM      30.33R
AUSTIN         CLEAR     30  28  93 CALM      30.31R
ALBERT LEA     CLEAR     30  28  93 CALM      30.31S FOG
DODGE CENTER   PTCLDY    34  32  93 CALM      30.30S
PRESTON        PTCLDY    32  28  83 CALM      30.31S
OWATONNA       CLEAR     30  28  93 CALM      30.31S FOG
FARIBAULT      CLEAR     34  27  75 CALM      30.31S
$$

...ELSEWHERE IN MINNESOTA...


CITY           SKY/WX    TMP DP  RH WIND       PRES   REMARKS
MINNEAPOLIS    CLEAR     34  25  69 CALM      30.31S
INTNL FALLS    CLEAR     26  20  77 CALM      30.30R
DULUTH         CLEAR     26  19  74 CALM      30.28F
RED WING       CLEAR     28  27  93 CALM      30.31S
REDWOOD FALLS  CLEAR     31  25  78 SW3       30.31S
MANKATO        CLEAR     32  27  80 CALM      30.32S
WORTHINGTON    PTCLDY    32  23  69 NE6       30.30S WCI  26
FAIRMONT       CLEAR     32  28  86 CALM      30.32S
$$

...SOUTHWEST WISCONSIN...


CITY           SKY/WX    TMP DP  RH WIND       PRES   REMARKS
LA CROSSE      CLOUDY    38  28  67 N5        30.32S WCI  34
PRAIRIE DU CHI CLEAR     36  30  79 CALM      30.32R
BOSCOBEL       CLEAR     37  30  75 NW3       30.32R
LONE ROCK      NOT AVBL
PLATTEVILLE    CLEAR     38  32  79 NW7       30.29R WCI  33
FORT MC COY    CLOUDY    38  29  70 N3        30.32S
VIROQUA        CLOUDY    36  31  81 NE6       30.28S WCI  31
WIS DELLS      CLEAR     34  30  85 CALM      30.29R
$$

...ELSEWHERE IN WISCONSIN...


CITY           SKY/WX    TMP DP  RH WIND       PRES   REMARKS
MILWAUKEE      MOCLDY    49  37  63 NW7       30.26R
MADISON        PTCLDY    37  32  82 N5        30.29S WCI  33
GREEN BAY      MOCLDY    38  34  85 W6        30.28R WCI  33
EAU CLAIRE     NOT AVBL
BLACK RVR FLS  CLOUDY    36  26  66 N7        30.31F WCI  31
MEDFORD        CLOUDY    32  26  79 NW6       30.29R WCI  26
WAUSAU         CLOUDY    34  27  75 N7        30.27S WCI  28
WIS RAPIDS     CLOUDY    37  28  70 NW7       30.31R WCI  32
MARSHFIELD     CLOUDY    34  27  75 NW9       30.29R WCI  27
RICE LAKE      CLEAR     28  25  89 CALM      30.32S
$$

...NORTHEAST IOWA...


CITY           SKY/WX    TMP DP  RH WIND       PRES   REMARKS
WATERLOO       CLEAR     32  29  88 CALM      30.31F
DUBUQUE        CLEAR     36  31  82 N10       30.28S WCI  28
DECORAH        CLOUDY    34  28  80 CALM      30.30S
MASON CITY     CLEAR     28  25  88 CALM      30.33R
CHARLES CITY   PTCLDY    34  28  80 N3        30.32R
OELWEIN        CLEAR    N/A N/A N/A N5        30.32S
$$

...ELSEWHERE IN IOWA...


CITY           SKY/WX    TMP DP  RH WIND       PRES   REMARKS
DES MOINES     CLEAR     45  31  58 E8        30.29F
IOWA CITY      CLEAR     43  34  70 N12       30.31R
FORT DODGE     PTCLDY    32  27  80 E8        30.31S WCI  25
MARSHALLTOWN   CLEAR     33  29  85 NE8       30.30F WCI  26
CEDAR RAPIDS   CLEAR     36  30  79 N10       30.29R WCI  28
$$

...NORTHERN ILLINOIS...


CITY           SKY/WX    TMP DP  RH WIND       PRES   REMARKS
CHICAGO-OHARE  CLOUDY    51  37  58 W3        30.24S
DUPAGE         MOCLDY    47  38  71 W6        30.24S
CHICAGO-MIDWAY CLOUDY    53  39  59 CALM      30.25R
MOLINE         MOCLDY    42  34  73 W5        30.27S
ROCKFORD       CLOUDY    47  36  65 NW5       30.26F
STERLING       MOCLDY    46  36  66 NW6       30.26S
PEORIA         CLOUDY    49  36  61 NW3       30.27S
$$

NOTE: "FAIR" INDICATES FEW OR NO CLOUDS BELOW 12,000 FEET WITH NO
SIGNIFICANT WEATHER AND/OR OBSTRUCTIONS TO VISIBILITY. WIND
SPEEDS ARE IN MILES-PER-HOUR.



USA.gov is the U.S. government's official web portal to all federal, state and local government web resources and services.